STARLINK-36398, 67562

Orbit data source: Space-Track

STARLINK-36398, 67562 is a payload satellite owned by SpaceX/Seattle (US) in SSO that was launched on Sun, 25 Jan 2026 UTC via an FALCON 9 launch vehicle from the Air Force Western Test Range (AFWTR). Payload-class satellites include a variety of spacecraft equipped with specific instruments for various scientific and technological missions. These include communications satellites like Starlink; space stations such as the ISS; scientific satellites like the Hubble; Earth observation satellites from companies like Planet Labs, Umbra, and HawkEye 360; GPS; miniature CubeSats for education and research; and military/defense satellites.

Loading next visibility...
Identifier
67562, 2026-016B
Orbit
SSO
Country
Flag of USUS
Related business
Manufacturer
SpaceX/Seattle
Mission
Operational Commercial Communications
Bus & Motor
STARLINK V2MO, Unknown motor
Mass
575 kg wet, ~530 kg dry
Launch date (UTC)
2026-01-25 (5 months ago)
Launch vehicle
FALCON 9
Launch site
Air Force Western Test Range (AFWTR)
Object type
Payload
Rocket body
Debris
Shape & HBR
Box + 2 Pan, 17.7 m
Radar Cross Section
36.964 m², Large (>1 m²)

Expand to show TLE details & history
Last TLE update: 1 day ago

TLE from 1 day ago
0 STARLINK-36398
1 67562U 26016B   26170.70463989 -.00001633  00000-0 -48293-4 0  9998
2 67562  97.2839 230.7533 0000313 109.0628 251.0649 15.33433078 22505
Epoch: 2026-06-19T16:54Z
TLE epoch observation values (Epoch: 2026-06-19T16:54:40.886Z)
Latitude
0.00001°
Longitude
69.15315°
Altitude
468.76 km
Speed
7.632 km/s
True Right ascension
15h 23m 00s
True Declination
0° 00' 00"
Sunlit
Object was in full shadow at epoch
Visualization orbit readout
Latitude
Unknown
Longitude
Unknown
Altitude
Unknown
Speed
Unknown
Apparent Right ascension
Unknown
Apparent Declination
Unknown
Sunlit
N/A
Visualization observer readout
Local Sidereal Time
07:24:21
Azimuth
Unknown
Elevation
Unknown
Doppler factor
Unknown
Orbital elements
Apogee altitude
462.735 km
Perigee altitude
462.307 km
Semi-major axis
6,840.658 km
Eccentricity
0.00003
Inclination
97.2839°
RAAN
230.7533°
Arg. of periapsis
109.0628°
True anomaly
251.06151°
Mean anomaly
251.0649°
Eccentric anomaly
251.0632°
Mean motion
3.83616 °/min
Orbital period
93.84 mins
BSTAR
-0.000048293
Loading maneuver chart data...
Computing Atmospheric mass density...
Loading historical data...
Loading historical data...
Loading historical data...
Loading historical data...
Loading historical data...
Loading historical data...
Loading historical data...

Documentation

Showing up to 5 results
|